Lexington Weather

Lexington, Massachusetts, USA

54°F
5/18/2024 12:14am 
  • Lexington Conditions: Clear
  • Temperature: 54.3°F / 12.4°CColder 1.3°F than last hour.
  • Dew Point: 49.8°FDecreased 0.7°Fsince last hour.
  • Relative Humidity: 85%Increased 2.0% since last hour.
  • Wind: Calm, 10-min avg: Calm, gust: None
  • Barometer: 29.96 in Steady
  • Visibility: 10 miles
  • Rain Today: 0.00 in
  •   

Regional Weather Roundup
for Boston, MA

        
000
ASUS41 KBOX 120510
RWRBOX

REGIONAL WEATHER ROUNDUP
NATIONAL WEATHER SERVICE BOSTON/NORTON MA
100 AM EDT SUN MAY 12 2024

NOTE:  "FAIR" INDICATES FEW OR NO CLOUDS BELOW 12,000 FEET WITH NO 
SIGNIFICANT WEATHER AND/OR OBSTRUCTIONS TO VISIBILITY.

MAZALL-120600-
EASTERN MASSACHUSETTS
  
CITY           SKY/WX    TMP DP  RH WIND       PRES   REMARKS
BOSTON         PTCLDY    45  41  86 SW5       29.89S                  
BEVERLY        CLEAR     38  34  85 CALM      29.88S                  
LAWRENCE       CLEAR     40  38  93 CALM      29.90F                  
BEDFORD        CLEAR     39  37  92 CALM      29.88S                  
NORWOOD        PTCLDY    40  38  93 CALM      29.89F                  
MARSHFIELD     MOCLDY    41  39  93 CALM      29.89S                  
PLYMOUTH       PTCLDY    40  37  89 CALM      29.88S                  
TAUNTON        CLEAR     38  34  85 CALM      29.89S                  
NEW BEDFORD    CLEAR     39  38  96 CALM      29.89S                  
$$

MAZALL-120600-
CAPE COD AND THE ISLANDS
  
CITY           SKY/WX    TMP DP  RH WIND       PRES   REMARKS
FALMOUTH       NOT AVBL                                               
HYANNIS        CLEAR     38  35  89 CALM      29.87F                  
CHATHAM        MOCLDY    40  37  89 CALM      29.88S                  
PROVINCETOWN   CLEAR     39  39 100 CALM      29.89S                  
NANTUCKET      CLOUDY    41  40  96 CALM      29.89R                  
MARTHAS VNYRD  PTCLDY    41  38  89 CALM      29.88S                  
$$
 
MAZALL-120600-
CENTRAL AND WESTERN MASSACHUSETTS
  
CITY           SKY/WX    TMP DP  RH WIND       PRES   REMARKS
WORCESTER      PTCLDY    44  35  70 W5        29.86F                  
FITCHBURG      CLOUDY    41  38  89 NW3       29.89S                  
ORANGE         CLOUDY    48  39  71 CALM      29.88F                  
SPRINGFIELD    CLOUDY    51  41  69 CALM      29.85F                  
WESTFIELD      CLOUDY    49  43  80 S5        29.87F                  
NORTH ADAMS    CLOUDY    52  40  63 VRB3      29.85S                  
PITTSFIELD     LGT RAIN  48  41  76 S7        29.83F                  
$$
 
RIZALL-120600-
RHODE ISLAND
  
CITY           SKY/WX    TMP DP  RH WIND       PRES   REMARKS
PROVIDENCE     PTCLDY    43  40  89 CALM      29.89F                  
NEWPORT        CLEAR     39  37  92 CALM      29.88F                  
BLOCK ISLAND   CLOUDY    46  41  82 S3        29.90S                  
SMITHFIELD     MOCLDY    39  39 100 CALM      29.88F                  
WESTERLY       MOCLDY    48  43  82 CALM      29.88F                  
$$
 
CTZALL-120600-
CONNECTICUT
  
CITY           SKY/WX    TMP DP  RH WIND       PRES   REMARKS
BRADLEY INTL   CLOUDY    51  42  71 SE6       29.88S                  
HARTFORD       CLOUDY    50  42  74 S7        29.88F                  
PLAINVILLE     LGT RAIN  49  44  82 SW5       29.88S                  
BRIDGEPORT     CLOUDY    50  42  74 S8        29.88F                  
DANBURY        CLOUDY    49  40  71 CALM      29.88F                  
GROTON         PTCLDY    48  44  86 S6        29.88F                  
NEW HAVEN      CLOUDY    51  44  77 S7        29.89S                  
CHESTER        MOCLDY    46  45  93 CALM      29.88F                  
MERIDEN        CLOUDY    49  41  74 VRB3      29.88F                  
WILLIMANTIC    CLOUDY    46  42  86 CALM      29.88F                  
OXFORD         CLOUDY    46  42  86 S5        29.88S                  
$$

MEZ002-015-021-024-NHZ003-005-008-011-012-014-VTZ005-008-120600-
NORTHERN NEW ENGLAND
  
CITY           SKY/WX    TMP DP  RH WIND       PRES   REMARKS
PORTLAND ME    CLEAR     42  38  85 W3        29.88S                  
BANGOR ME      CLEAR     40  36  86 CALM      29.87S                  
CONCORD NH     CLOUDY    42  38  85 CALM      29.88F                  
MANCHESTER NH  CLOUDY    42  38  85 CALM      29.87F                  
NASHUA NH      CLOUDY    42  42 100 CALM      29.89F                  
PORTSMOUTH NH  PTCLDY    42  38  88 CALM      29.87F                  
JAFFREY NH     CLOUDY    45  39  79 CALM      29.87F                  
KEENE NH       CLOUDY    48  39  71 CALM      29.88S                  
BURLINGTON VT  CLOUDY    53  39  59 S6        29.81S                  
MT. WASHINGTON MOCLDY    27  19  74 NE7         N/A  WCI  19          
$$

NYZ052-076-120600-
EASTERN NEW YORK
  
CITY           SKY/WX    TMP DP  RH WIND       PRES   REMARKS
ALBANY         CLOUDY    54  42  64 S10G22    29.83R                  
NEW YORK CITY  CLOUDY    51  39  63 S12       29.87S                  
$$
 
ANZALL-120600-
MARINE OBSERVATIONS
  
STATION/POSITION TIME  TEMP    WIND        PRES    VSBY  WAVE
                       AIR SEA DIR/SP/G                  HT/PER
                 (UTC) (F)     (DEG/KT/KT) (MB)    (MI)  (FT/S)
BOSTON BUOY      0450   47 50  230/  2/  4 1012.3F         3/ 7
BUZZARDS BAY     0400   47     360/  4/  4 1012.7S
NANTUCKET SOUND  0450   47 53  100/  2/  4 1011.6R         1/ 3
MASS BAY-STELLWA NOT AVBL
ISLE OF SHOALS   0400   47        CALM     1011.7R
S OF BLOCK IS    0456      49                N/A           4/ 8
$$

......................KEY.........................
  SKY/WX - SKY CONDITION/PRESENT WEATHER
  TMP    - TEMPERATURE IN FAHRENHEIT
  DWPT   - DEWPOINT IN FAHRENHEIT
  RH     - RELATIVE HUMIDITY IN PERCENT
  WIND   - DIRECTION AND SPEED IN MPH
  PRES   - MEAN SEA LEVEL PRESSURE IN INCHES OF HG
  WCI    - WIND CHILL INDEX
  VSB    - VISIBILITY IN MILES
  HX     - HEAT INDEX
  TC     - TEMPERATURE IN CELSIUS
  VRB    - VARIABLE WIND DIRECTION
  N/A    - NOT AVAILABLE
  
      

Other recent Regional Weather Roundups

Fri May 17, 11:10pm EDT

Fri May 17, 10:10pm EDT

Fri May 17, 9:10pm EDT

Fri May 17, 8:10pm EDT

Fri May 17, 7:10pm EDT

Fri May 17, 6:10pm EDT

Fri May 17, 5:10pm EDT

Fri May 17, 4:10pm EDT

Fri May 17, 3:10pm EDT

Fri May 17, 2:10pm EDT

Fri May 17, 1:10pm EDT

Fri May 17, 12:10pm EDT

Fri May 17, 11:10am EDT

Fri May 17, 10:10am EDT

Fri May 17, 9:10am EDT

Fri May 17, 8:10am EDT

Fri May 17, 7:10am EDT

Fri May 17, 6:10am EDT

Fri May 17, 5:10am EDT

Fri May 17, 4:10am EDT

Fri May 17, 3:10am EDT

Fri May 17, 2:10am EDT

Fri May 17, 1:10am EDT

Fri May 17, 12:10am EDT

Thu May 16, 11:10pm EDT

Thu May 16, 10:10pm EDT

Thu May 16, 9:10pm EDT

Thu May 16, 8:10pm EDT

Thu May 16, 7:10pm EDT

Thu May 16, 6:10pm EDT

Thu May 16, 5:10pm EDT

Thu May 16, 4:10pm EDT

Thu May 16, 3:10pm EDT

Thu May 16, 2:10pm EDT

Thu May 16, 1:10pm EDT

Thu May 16, 12:10pm EDT

Thu May 16, 11:10am EDT

Thu May 16, 10:10am EDT

Thu May 16, 9:10am EDT

Thu May 16, 8:10am EDT

Thu May 16, 7:10am EDT

Thu May 16, 6:10am EDT

Thu May 16, 5:10am EDT

Thu May 16, 4:10am EDT

Thu May 16, 3:10am EDT

Thu May 16, 2:10am EDT

Thu May 16, 1:10am EDT

Thu May 16, 12:10am EDT

Wed May 15, 11:10pm EDT

Wed May 15, 10:10pm EDT

Wed May 15, 9:10pm EDT

Wed May 15, 8:10pm EDT

Wed May 15, 7:10pm EDT

Wed May 15, 6:10pm EDT

Wed May 15, 5:10pm EDT

Wed May 15, 4:10pm EDT

Wed May 15, 3:10pm EDT

Wed May 15, 2:10pm EDT

Wed May 15, 1:10pm EDT

Wed May 15, 12:10pm EDT

Wed May 15, 11:10am EDT

Wed May 15, 10:10am EDT

Wed May 15, 9:10am EDT

Wed May 15, 8:10am EDT

Wed May 15, 7:10am EDT

Wed May 15, 6:10am EDT

Wed May 15, 5:10am EDT

Wed May 15, 4:10am EDT

Wed May 15, 3:10am EDT

Wed May 15, 2:10am EDT

Wed May 15, 1:10am EDT

Wed May 15, 12:10am EDT

Tue May 14, 11:10pm EDT

Tue May 14, 10:10pm EDT

Tue May 14, 9:10pm EDT

Tue May 14, 8:10pm EDT

Tue May 14, 7:10pm EDT

Tue May 14, 6:10pm EDT

Tue May 14, 5:10pm EDT

Tue May 14, 4:10pm EDT

Tue May 14, 3:10pm EDT

Tue May 14, 2:10pm EDT

Tue May 14, 1:10pm EDT

Tue May 14, 12:10pm EDT

Tue May 14, 11:10am EDT

Tue May 14, 10:10am EDT

Tue May 14, 9:10am EDT

Tue May 14, 8:10am EDT

Tue May 14, 7:10am EDT

Tue May 14, 6:10am EDT

Tue May 14, 5:10am EDT

Tue May 14, 4:10am EDT

Tue May 14, 3:10am EDT

Tue May 14, 2:10am EDT

Tue May 14, 1:10am EDT

Tue May 14, 12:10am EDT

Mon May 13, 11:10pm EDT

Mon May 13, 10:10pm EDT

Mon May 13, 9:10pm EDT

Mon May 13, 8:10pm EDT

Mon May 13, 7:10pm EDT

Mon May 13, 6:10pm EDT

Mon May 13, 5:10pm EDT

Mon May 13, 4:10pm EDT

Mon May 13, 3:10pm EDT

Mon May 13, 2:10pm EDT

Mon May 13, 1:10pm EDT

Mon May 13, 12:10pm EDT

Mon May 13, 11:10am EDT

Mon May 13, 10:10am EDT

Mon May 13, 9:10am EDT

Mon May 13, 8:10am EDT

Mon May 13, 7:10am EDT

Mon May 13, 6:10am EDT

Mon May 13, 5:10am EDT

Mon May 13, 4:10am EDT

Mon May 13, 3:10am EDT

Mon May 13, 2:10am EDT

Mon May 13, 1:10am EDT

Mon May 13, 12:10am EDT

Sun May 12, 11:10pm EDT

Sun May 12, 10:10pm EDT

Sun May 12, 9:10pm EDT

Sun May 12, 8:10pm EDT

Sun May 12, 7:10pm EDT

Sun May 12, 6:10pm EDT

Sun May 12, 5:10pm EDT

Sun May 12, 4:10pm EDT

Sun May 12, 3:10pm EDT

Sun May 12, 2:10pm EDT

Sun May 12, 1:10pm EDT

Sun May 12, 12:10pm EDT

Sun May 12, 11:10am EDT

Sun May 12, 10:10am EDT

Sun May 12, 9:10am EDT

Sun May 12, 8:10am EDT

Sun May 12, 7:10am EDT

Sun May 12, 6:10am EDT

Sun May 12, 5:10am EDT

Sun May 12, 4:10am EDT

Sun May 12, 3:10am EDT

Sun May 12, 2:10am EDT

Sun May 12, 12:10am EDT

Sat May 11, 11:10pm EDT

Sat May 11, 10:10pm EDT

Sat May 11, 9:10pm EDT

Sat May 11, 8:10pm EDT

Sat May 11, 7:10pm EDT

Sat May 11, 6:10pm EDT

Sat May 11, 5:10pm EDT

Sat May 11, 4:10pm EDT

Sat May 11, 3:10pm EDT

Sat May 11, 2:10pm EDT

Sat May 11, 1:10pm EDT

Sat May 11, 12:10pm EDT

Sat May 11, 11:10am EDT

Sat May 11, 10:10am EDT

Sat May 11, 9:10am EDT

Sat May 11, 8:10am EDT

Sat May 11, 7:10am EDT

Sat May 11, 6:10am EDT

Sat May 11, 5:10am EDT

Sat May 11, 4:10am EDT

Sat May 11, 3:10am EDT

Sat May 11, 2:10am EDT

Sat May 11, 1:10am EDT

Sat May 11, 12:10am EDT